This is the latest recevied weather packets stored in our database for station/object K7DC. If no packets are shown the sender has not sent any weather packets the latest 10 day(s).
| Time | Temp. | Humidity | Pressure | Rain* | Wind** | Luminosity | Snow |
|---|---|---|---|---|---|---|---|
| 1788458175 | 30° C | 52% | 1017.2 hPa | 0 mm | - | 428 W/m² | - |
| 1788457875 | 30° C | 51% | 1017 hPa | 0 mm | - | 385 W/m² | - |
| 1788457570 | 30° C | 52% | 1017.3 hPa | 0 mm | - | 360 W/m² | - |
| 1788457264 | 29.44° C | 52% | 1017.2 hPa | 0 mm | - | 336 W/m² | - |
| 1788456960 | 29.44° C | 51% | 1017.4 hPa | 0 mm | - | 334 W/m² | - |
| 1788456656 | 29.44° C | 52% | 1017.2 hPa | 0 mm | - | 364 W/m² | - |
| 1788456356 | 29.44° C | 52% | 1017.1 hPa | 0 mm | - | 379 W/m² | - |
| 1788456052 | 29.44° C | 51% | 1017.3 hPa | 0 mm | - | 368 W/m² | - |
| 1788455751 | 29.44° C | 52% | 1017.3 hPa | 0 mm | - | 319 W/m² | - |
| 1788455447 | 29.44° C | 50% | 1017.1 hPa | 0 mm | - | 316 W/m² | - |
| 1788455145 | 29.44° C | 52% | 1017.1 hPa | 0 mm | - | 325 W/m² | - |
| 1788454841 | 28.89° C | 54% | 1017.3 hPa | 0 mm | - | 357 W/m² | - |
| 1788454538 | 28.89° C | 55% | 1017.2 hPa | 0 mm | - | 364 W/m² | - |
| 1788454235 | 28.89° C | 56% | 1017.2 hPa | 0 mm | - | 366 W/m² | - |
| 1788453935 | 28.89° C | 54% | 1017.3 hPa | 0 mm | - | 339 W/m² | - |
| 1788453630 | 28.33° C | 56% | 1017.3 hPa | 0 mm | - | 326 W/m² | - |
| 1788453325 | 28.89° C | 56% | 1017.2 hPa | 0 mm | - | 325 W/m² | - |
| 1788453021 | 28.89° C | 54% | 1017.4 hPa | 0 mm | - | 294 W/m² | - |
| 1788452717 | 28.33° C | 57% | 1017.3 hPa | 0 mm | - | 278 W/m² | - |
| 1788452413 | 27.78° C | 58% | 1017.3 hPa | 0 mm | - | 271 W/m² | - |
| 1788452108 | 27.78° C | 59% | 1017.3 hPa | 0 mm | - | 240 W/m² | - |
| 1788451804 | 27.22° C | 59% | 1017.2 hPa | 0 mm | - | 208 W/m² | - |
| 1788451502 | 27.22° C | 59% | 1017.4 hPa | 0 mm | - | 180 W/m² | - |
| 1788451197 | 27.22° C | 63% | 1017.6 hPa | 0 mm | - | 159 W/m² | - |
| 1788450896 | 26.67° C | 62% | 1017.3 hPa | 0 mm | - | 146 W/m² | - |
* Rain latest hour (hover to see other rain measurements)
** Current wind speed in m/s (hover to see current wind gust speed)